| time (UTC) | temp F | wind direction | speed MPH | gust MPH | rain 1hr in | rain 24hr in | rain mn in | humidity % | barometer mb |
| 20260504205722 | 88 | 174 | 2.0 | 4.0 | 0.00 | 0.00 | 0.00 | 69 | 1013.2 |
| 20260504205220 | 89 | 120 | 2.0 | 3.0 | 0.00 | 0.00 | 0.00 | 70 | 1013.1 |
| 20260504204718 | 88 | 234 | 3.0 | 4.0 | 0.00 | 0.00 | 0.00 | 70 | 1013.2 |
| 20260504204216 | 88 | 201 | 2.0 | 4.0 | 0.00 | 0.00 | 0.00 | 70 | 1013.3 |
| 20260504203715 | 87 | 127 | 1.0 | 3.0 | 0.00 | 0.00 | 0.00 | 71 | 1013.3 |
| 20260504203212 | 87 | 196 | 2.0 | 5.0 | 0.00 | 0.00 | 0.00 | 70 | 1013.4 |
| 20260504202712 | 87 | 241 | 0.0 | 3.0 | 0.00 | 0.00 | 0.00 | 71 | 1013.4 |
| 20260504202209 | 89 | 221 | 1.0 | 4.0 | 0.00 | 0.00 | 0.00 | 69 | 1013.5 |
| 20260504201706 | 89 | 311 | 3.0 | 5.0 | 0.00 | 0.00 | 0.00 | 70 | 1013.5 |
| 20260504201204 | 88 | 98 | 0.0 | 6.0 | 0.00 | 0.00 | 0.00 | 70 | 1013.6 |
| 20260504200701 | 87 | 195 | 3.0 | 3.0 | 0.00 | 0.00 | 0.00 | 71 | 1013.7 |
| 20260504200157 | 87 | 215 | 2.0 | 4.0 | 0.00 | 0.00 | 0.00 | 71 | 1013.6 |
| 20260504195653 | 87 | 248 | 2.0 | 5.0 | 0.00 | 0.00 | 0.00 | 71 | 1013.6 |
| 20260504195149 | 87 | 217 | 3.0 | 5.0 | 0.00 | 0.00 | 0.00 | 71 | 1013.6 |
| 20260504194646 | 87 | 77 | 0.0 | 4.0 | 0.00 | 0.00 | 0.00 | 71 | 1013.6 |
| 20260504194142 | 87 | 323 | 0.0 | 3.0 | 0.00 | 0.00 | 0.00 | 70 | 1013.6 |
| 20260504193639 | 88 | 234 | 4.0 | 5.0 | 0.00 | 0.00 | 0.00 | 67 | 1013.8 |
| 20260504193137 | 88 | 237 | 3.0 | 5.0 | 0.00 | 0.00 | 0.00 | 69 | 1013.8 |
| 20260504192634 | 89 | 207 | 1.0 | 5.0 | 0.00 | 0.00 | 0.00 | 69 | 1013.9 |
| 20260504192133 | 88 | 198 | 3.0 | 9.0 | 0.00 | 0.00 | 0.00 | 69 | 1013.8 |
| 20260504191631 | 88 | 204 | 2.0 | 5.0 | 0.00 | 0.00 | 0.00 | 71 | 1013.8 |
| 20260504191126 | 88 | 137 | 2.0 | 5.0 | 0.00 | 0.00 | 0.00 | 70 | 1013.9 |
| 20260504190623 | 89 | 189 | 4.0 | 5.0 | 0.00 | 0.00 | 0.00 | 71 | 1014.0 |
| 20260504190120 | 88 | 71 | 2.0 | 5.0 | 0.00 | 0.00 | 0.00 | 71 | 1014.0 |
| 20260504185616 | 88 | 265 | 1.0 | 4.0 | 0.00 | 0.00 | 0.00 | 73 | 1014.1 |
| 20260504185113 | 88 | 278 | 2.0 | 6.0 | 0.00 | 0.00 | 0.00 | 71 | 1014.2 |
| 20260504184608 | 87 | 181 | 2.0 | 5.0 | 0.00 | 0.00 | 0.00 | 73 | 1014.1 |
| 20260504184104 | 86 | 295 | 0.0 | 5.0 | 0.00 | 0.00 | 0.00 | 73 | 1014.0 |
| 20260504183601 | 86 | 169 | 3.0 | 5.0 | 0.00 | 0.00 | 0.00 | 73 | 1014.6 |
| 20260504183059 | 86 | 256 | 2.0 | 3.0 | 0.00 | 0.00 | 0.00 | 73 | 1014.5 |
| 20260504182556 | 87 | 210 | 3.0 | 6.0 | 0.00 | 0.00 | 0.00 | 72 | 1014.9 |
| 20260504182053 | 86 | 268 | 4.0 | 9.0 | 0.00 | 0.00 | 0.00 | 72 | 1014.8 |
| 20260504181550 | 87 | 237 | 3.0 | 6.0 | 0.00 | 0.00 | 0.00 | 72 | 1014.7 |
| 20260504181048 | 87 | 177 | 1.0 | 4.0 | 0.00 | 0.00 | 0.00 | 72 | 1014.9 |
| 20260504180547 | 87 | 282 | 2.0 | 3.0 | 0.00 | 0.00 | 0.00 | 73 | 1014.9 |
| 20260504180045 | 86 | 286 | 2.0 | 6.0 | 0.00 | 0.00 | 0.00 | 73 | 1014.8 |
| 20260504175542 | 86 | 224 | 4.0 | 4.0 | 0.00 | 0.00 | 0.00 | 74 | 1014.9 |
| 20260504175039 | 86 | 244 | 2.0 | 5.0 | 0.00 | 0.00 | 0.00 | 73 | 1014.9 |
| 20260504174537 | 86 | 290 | 1.0 | 5.0 | 0.00 | 0.00 | 0.00 | 72 | 1014.8 |
| 20260504174033 | 86 | 80 | 0.0 | 7.0 | 0.00 | 0.00 | 0.00 | 72 | 1015.0 |
| 20260504173530 | 87 | 172 | 2.0 | 4.0 | 0.00 | 0.00 | 0.00 | 73 | 1015.3 |
| 20260504173028 | 86 | 267 | 5.0 | 5.0 | 0.00 | 0.00 | 0.00 | 74 | 1015.0 |
| 20260504172524 | 85 | 238 | 3.0 | 7.0 | 0.00 | 0.00 | 0.00 | 74 | 1015.3 |
| 20260504172020 | 87 | 198 | 2.0 | 6.0 | 0.00 | 0.00 | 0.00 | 73 | 1015.0 |
| 20260504171517 | 87 | 202 | 3.0 | 6.0 | 0.00 | 0.00 | 0.00 | 72 | 1015.2 |
| 20260504171014 | 87 | 228 | 4.0 | 6.0 | 0.00 | 0.00 | 0.00 | 73 | 1015.3 |
| 20260504170510 | 87 | 238 | 3.0 | 7.0 | 0.00 | 0.00 | 0.00 | 72 | 1015.4 |
| 20260504160431 | 86 | 275 | 0.0 | 5.0 | 0.00 | 0.00 | 0.00 | 75 | 1014.9 |
| 20260504150854 | 86 | 184 | 3.0 | 5.0 | 0.00 | 0.00 | 0.00 | 76 | 1015.5 |
| 20260504150351 | 86 | 207 | 6.0 | 6.0 | 0.00 | 0.00 | 0.00 | 76 | 1015.5 |
| 20260504141321 | 86 | 173 | 0.0 | 6.0 | 0.00 | 0.00 | 0.00 | 77 | 1015.6 |
| 20260504140817 | 85 | 145 | 0.0 | 5.0 | 0.00 | 0.00 | 0.00 | 79 | 1015.6 |
| 20260504140313 | 84 | 184 | 3.0 | 5.0 | 0.00 | 0.00 | 0.00 | 80 | 1015.6 |
| 20260504130742 | 84 | 234 | 2.0 | 8.0 | 0.00 | 0.00 | 0.00 | 81 | 1015.0 |
| 20260504130238 | 84 | 167 | 4.0 | 4.0 | 0.00 | 0.00 | 0.00 | 83 | 1015.1 |
| 20260504120202 | 82 | 140 | 5.0 | 5.0 | 0.00 | 0.00 | 0.00 | 89 | 1014.2 |
| 20260504110629 | 78 | 111 | 2.0 | 4.0 | 0.00 | 0.00 | 0.00 | 93 | 1013.9 |
| 20260504110125 | 78 | 100 | 2.0 | 3.0 | 0.00 | 0.00 | 0.00 | 93 | 1013.8 |
| 20260504100551 | 76 | 134 | 2.0 | 5.0 | 0.00 | 0.00 | 0.00 | 93 | 1013.3 |
| 20260504081944 | 77 | 135 | 4.0 | 4.0 | 0.00 | 0.00 | 0.00 | 93 | 1013.4 |
| 20260504081442 | 77 | 117 | 3.0 | 5.0 | 0.00 | 0.00 | 0.00 | 93 | 1013.2 |
| 20260504080937 | 76 | 125 | 1.0 | 4.0 | 0.00 | 0.00 | 0.00 | 93 | 1013.3 |
| 20260504080434 | 76 | 128 | 6.0 | 6.0 | 0.00 | 0.00 | 0.00 | 93 | 1013.4 |
| 20260504070402 | 77 | 84 | 0.0 | 3.0 | 0.00 | 0.00 | 0.00 | 92 | 1013.9 |
| 20260504050749 | 78 | 116 | 2.0 | 3.0 | 0.00 | 0.00 | 0.00 | 92 | 1015.5 |
| 20260504050247 | 78 | 97 | 1.0 | 4.0 | 0.00 | 0.00 | 0.00 | 92 | 1015.5 |
| 20260504045745 | 78 | 108 | 2.0 | 3.0 | 0.00 | 0.00 | 0.00 | 92 | 1015.5 |
| 20260504045244 | 78 | 118 | 2.0 | 4.0 | 0.00 | 0.00 | 0.00 | 92 | 1015.3 |
| 20260504044742 | 78 | 102 | 2.0 | 4.0 | 0.00 | 0.00 | 0.00 | 91 | 1015.6 |
| 20260504044240 | 78 | 136 | 3.0 | 4.0 | 0.00 | 0.00 | 0.00 | 91 | 1015.6 |
| 20260504043737 | 78 | 120 | 1.0 | 4.0 | 0.00 | 0.00 | 0.00 | 91 | 1015.7 |
| 20260504043233 | 78 | 109 | 3.0 | 4.0 | 0.00 | 0.00 | 0.00 | 91 | 1015.6 |
| 20260504042731 | 78 | 93 | 3.0 | 4.0 | 0.00 | 0.00 | 0.00 | 91 | 1015.7 |
| 20260504042227 | 78 | 101 | 3.0 | 4.0 | 0.00 | 0.00 | 0.00 | 91 | 1015.7 |
| 20260504041724 | 78 | 120 | 4.0 | 5.0 | 0.00 | 0.00 | 0.00 | 91 | 1015.8 |
| 20260504041220 | 78 | 128 | 2.0 | 3.0 | 0.00 | 0.00 | 0.00 | 91 | 1015.7 |
| 20260504040716 | 78 | 56 | 2.0 | 3.0 | 0.00 | 0.00 | 0.00 | 91 | 1015.6 |
| 20260504040214 | 78 | 105 | 2.0 | 3.0 | 0.00 | 0.00 | 0.00 | 91 | 1015.8 |
| 20260504035710 | 78 | 112 | 3.0 | 4.0 | 0.00 | 0.00 | 0.00 | 91 | 1015.7 |
| 20260504035207 | 78 | 57 | 0.0 | 3.0 | 0.00 | 0.00 | 0.00 | 91 | 1015.8 |
| 20260504034704 | 79 | 109 | 4.0 | 4.0 | 0.00 | 0.00 | 0.00 | 91 | 1015.8 |
| 20260504034201 | 79 | 91 | 2.0 | 5.0 | 0.00 | 0.00 | 0.00 | 91 | 1016.0 |
| 20260504033659 | 79 | 106 | 5.0 | 5.0 | 0.00 | 0.00 | 0.00 | 91 | 1015.9 |
| 20260504033156 | 79 | 94 | 3.0 | 6.0 | 0.00 | 0.00 | 0.00 | 91 | 1016.0 |
| 20260504032653 | 79 | 85 | 4.0 | 6.0 | 0.00 | 0.00 | 0.00 | 91 | 1016.0 |
| 20260504032150 | 79 | 85 | 3.0 | 4.0 | 0.00 | 0.00 | 0.00 | 91 | 1016.1 |
| 20260504031647 | 79 | 98 | 4.0 | 4.0 | 0.00 | 0.00 | 0.00 | 91 | 1016.2 |
| 20260504031143 | 79 | 91 | 2.0 | 3.0 | 0.00 | 0.00 | 0.00 | 90 | 1016.2 |
| 20260504030640 | 79 | 103 | 3.0 | 4.0 | 0.00 | 0.00 | 0.00 | 90 | 1016.2 |
| 20260504030137 | 79 | 96 | 2.0 | 3.0 | 0.00 | 0.00 | 0.00 | 90 | 1016.1 |
| 20260504025634 | 79 | 110 | 2.0 | 4.0 | 0.00 | 0.00 | 0.00 | 90 | 1016.3 |
| 20260504025131 | 79 | 118 | 4.0 | 4.0 | 0.00 | 0.00 | 0.00 | 90 | 1016.3 |
| 20260504024628 | 79 | 109 | 2.0 | 5.0 | 0.00 | 0.00 | 0.00 | 90 | 1016.4 |
| 20260504024124 | 79 | 110 | 2.0 | 4.0 | 0.00 | 0.00 | 0.00 | 90 | 1016.3 |
| 20260504023621 | 79 | 96 | 4.0 | 4.0 | 0.00 | 0.00 | 0.00 | 90 | 1016.1 |
| 20260504023117 | 79 | 117 | 3.0 | 4.0 | 0.00 | 0.00 | 0.00 | 90 | 1016.2 |
| 20260504022614 | 79 | 122 | 2.0 | 4.0 | 0.00 | 0.00 | 0.00 | 90 | 1016.0 |
| 20260504022109 | 79 | 108 | 4.0 | 5.0 | 0.00 | 0.00 | 0.00 | 90 | 1016.0 |
| 20260504021608 | 79 | 85 | 3.0 | 6.0 | 0.00 | 0.00 | 0.00 | 89 | 1016.0 |
| 20260504021104 | 80 | 84 | 4.0 | 4.0 | 0.00 | 0.00 | 0.00 | 89 | 1016.0 |
| 20260504020601 | 80 | 71 | 3.0 | 6.0 | 0.00 | 0.00 | 0.00 | 89 | 1016.0 |
| 20260504020057 | 80 | 76 | 6.0 | 8.0 | 0.00 | 0.00 | 0.00 | 89 | 1016.1 |
| 20260504015554 | 80 | 80 | 3.0 | 6.0 | 0.00 | 0.00 | 0.00 | 90 | 1015.9 |
| 20260504015049 | 80 | 85 | 4.0 | 6.0 | 0.00 | 0.00 | 0.00 | 90 | 1016.0 |
| 20260504014546 | 80 | 80 | 5.0 | 6.0 | 0.00 | 0.00 | 0.00 | 89 | 1015.9 |
| 20260504014043 | 80 | 78 | 3.0 | 6.0 | 0.00 | 0.00 | 0.00 | 90 | 1015.8 |
| 20260504013541 | 80 | 75 | 6.0 | 6.0 | 0.00 | 0.00 | 0.00 | 90 | 1015.7 |
| 20260504013038 | 80 | 88 | 6.0 | 8.0 | 0.00 | 0.00 | 0.00 | 90 | 1015.6 |
| 20260504012535 | 80 | 79 | 5.0 | 7.0 | 0.00 | 0.00 | 0.00 | 90 | 1015.7 |
| 20260504012033 | 80 | 73 | 6.0 | 7.0 | 0.00 | 0.00 | 0.00 | 90 | 1015.5 |
| 20260504011529 | 80 | 97 | 2.0 | 4.0 | 0.00 | 0.00 | 0.00 | 90 | 1015.6 |
| 20260504011026 | 79 | 84 | 4.0 | 6.0 | 0.00 | 0.00 | 0.00 | 90 | 1015.5 |
| 20260504010521 | 79 | 75 | 3.0 | 3.0 | 0.00 | 0.00 | 0.00 | 89 | 1015.6 |
| 20260504010017 | 79 | 71 | 2.0 | 4.0 | 0.00 | 0.00 | 0.00 | 89 | 1015.6 |
| 20260504005514 | 79 | 86 | 3.0 | 3.0 | 0.00 | 0.00 | 0.00 | 89 | 1015.3 |
| 20260504005012 | 79 | 89 | 2.0 | 4.0 | 0.00 | 0.00 | 0.00 | 89 | 1015.2 |
| 20260504004510 | 79 | 106 | 3.0 | 4.0 | 0.00 | 0.00 | 0.00 | 89 | 1015.1 |
| 20260504004007 | 79 | 101 | 4.0 | 4.0 | 0.00 | 0.00 | 0.00 | 89 | 1015.1 |
| 20260504003502 | 79 | 94 | 2.0 | 3.0 | 0.00 | 0.00 | 0.00 | 88 | 1015.2 |
| 20260504002959 | 79 | 102 | 3.0 | 3.0 | 0.00 | 0.00 | 0.00 | 88 | 1015.0 |
| 20260504002456 | 79 | 64 | 1.0 | 3.0 | 0.00 | 0.00 | 0.00 | 88 | 1014.8 |
| 20260504001954 | 79 | 98 | 3.0 | 4.0 | 0.00 | 0.00 | 0.00 | 88 | 1015.0 |
| 20260504001451 | 80 | 96 | 2.0 | 3.0 | 0.00 | 0.00 | 0.00 | 88 | 1014.9 |
| 20260504000947 | 80 | 131 | 1.0 | 3.0 | 0.00 | 0.00 | 0.00 | 87 | 1014.7 |
| 20260504000444 | 80 | 134 | 0.0 | 4.0 | 0.00 | 0.00 | 0.00 | 87 | 1015.0 |
| 20260503235942 | 80 | 115 | 2.0 | 3.0 | 0.00 | 0.00 | 0.00 | 87 | 1014.7 |
| 20260503235439 | 80 | 118 | 2.0 | 3.0 | 0.00 | 0.00 | 0.00 | 86 | 1014.8 |
| 20260503234937 | 80 | 118 | 2.0 | 3.0 | 0.00 | 0.00 | 0.00 | 86 | 1014.6 |
| 20260503234434 | 80 | 126 | 4.0 | 4.0 | 0.00 | 0.00 | 0.00 | 86 | 1014.7 |
| 20260503233932 | 80 | 106 | 1.0 | 3.0 | 0.00 | 0.00 | 0.00 | 85 | 1014.5 |
| 20260503233428 | 81 | 111 | 4.0 | 4.0 | 0.00 | 0.00 | 0.00 | 85 | 1014.4 |
| 20260503232925 | 81 | 117 | 4.0 | 5.0 | 0.00 | 0.00 | 0.00 | 84 | 1014.6 |
| 20260503232422 | 81 | 85 | 2.0 | 6.0 | 0.00 | 0.00 | 0.00 | 84 | 1014.4 |
| 20260503231920 | 81 | 55 | 2.0 | 4.0 | 0.00 | 0.00 | 0.00 | 83 | 1014.4 |
| 20260503231417 | 82 | 106 | 4.0 | 4.0 | 0.00 | 0.00 | 0.00 | 82 | 1014.6 |
| 20260503230913 | 82 | 96 | 2.0 | 4.0 | 0.00 | 0.00 | 0.00 | 82 | 1014.2 |
| 20260503230410 | 82 | 100 | 4.0 | 7.0 | 0.00 | 0.00 | 0.00 | 81 | 1014.3 |
| 20260503225908 | 82 | 105 | 3.0 | 5.0 | 0.00 | 0.00 | 0.00 | 81 | 1014.3 |
| 20260503225403 | 83 | 86 | 4.0 | 4.0 | 0.00 | 0.00 | 0.00 | 81 | 1014.3 |
| 20260503224900 | 83 | 98 | 2.0 | 5.0 | 0.00 | 0.00 | 0.00 | 80 | 1014.2 |
| 20260503224357 | 83 | 91 | 2.0 | 5.0 | 0.00 | 0.00 | 0.00 | 80 | 1014.2 |
| 20260503223855 | 83 | 98 | 2.0 | 7.0 | 0.00 | 0.00 | 0.00 | 80 | 1014.3 |
| 20260503223352 | 84 | 72 | 2.0 | 4.0 | 0.00 | 0.00 | 0.00 | 79 | 1014.1 |
| 20260503222847 | 84 | 87 | 3.0 | 5.0 | 0.00 | 0.00 | 0.00 | 78 | 1014.3 |
| 20260503222347 | 84 | 96 | 4.0 | 5.0 | 0.00 | 0.00 | 0.00 | 79 | 1014.1 |
| 20260503221844 | 84 | 103 | 2.0 | 6.0 | 0.00 | 0.00 | 0.00 | 79 | 1014.1 |
| 20260503221343 | 84 | 87 | 5.0 | 6.0 | 0.00 | 0.00 | 0.00 | 78 | 1014.2 |
| 20260503220838 | 84 | 74 | 4.0 | 6.0 | 0.00 | 0.00 | 0.00 | 78 | 1014.1 |
| 20260503220335 | 84 | 74 | 6.0 | 6.0 | 0.00 | 0.00 | 0.00 | 78 | 1013.9 |
| 20260503215832 | 84 | 79 | 3.0 | 6.0 | 0.00 | 0.00 | 0.00 | 78 | 1014.2 |
| 20260503215329 | 84 | 80 | 5.0 | 6.0 | 0.00 | 0.00 | 0.00 | 78 | 1014.2 |
| 20260503214827 | 84 | 77 | 2.0 | 4.0 | 0.00 | 0.00 | 0.00 | 78 | 1014.2 |
| 20260503214324 | 84 | 81 | 4.0 | 5.0 | 0.00 | 0.00 | 0.00 | 78 | 1014.1 |
| 20260503213821 | 84 | 73 | 3.0 | 4.0 | 0.00 | 0.00 | 0.00 | 78 | 1014.1 |
| 20260503213319 | 84 | 74 | 5.0 | 6.0 | 0.00 | 0.00 | 0.00 | 78 | 1014.1 |
| 20260503212815 | 85 | 57 | 4.0 | 7.0 | 0.00 | 0.00 | 0.00 | 78 | 1014.1 |
| 20260503212314 | 84 | 60 | 3.0 | 6.0 | 0.00 | 0.00 | 0.00 | 78 | 1014.1 |
| 20260503211810 | 84 | 67 | 6.0 | 7.0 | 0.00 | 0.00 | 0.00 | 78 | 1014.0 |
| 20260503211307 | 85 | 52 | 4.0 | 8.0 | 0.00 | 0.00 | 0.00 | 78 | 1014.2 |
| 20260503210807 | 85 | 62 | 3.0 | 6.0 | 0.00 | 0.00 | 0.00 | 78 | 1014.1 |
| 20260503210305 | 85 | 39 | 3.0 | 7.0 | 0.00 | 0.00 | 0.00 | 77 | 1014.0 |